Home > Weather > Broken Hill > Past weeks

Flag for Australia Weather for the Past 2 Weeks in Broken Hill, New South Wales, Australia

Now
98 °F

Extremely hot.


Feels Like: 93 °F
Forecast: 74 / 99 °F
Wind: 3 mph from Southeast

Location: Yunta

Current Time: Feb 12, 2016 at 7:16:44 PM

Latest Report: Feb 12, 2016 at 6:30 PM


Visibility: N/A

Pressure: 29.78 "Hg

Humidity: 10%

Dew point: 32 °F

Location of Broken HillLocation

Historic Weather in Broken Hill — Graph

°F

Broken Hill Temperature Yesterday

Maximum temperature yesterday: 95 °F (at 5:30 PM)
Minimum temperature yesterday: 63 °F (at 6:30 AM)
Average temperature yesterday: 80 °F

High & Low Weather Summary for the Past Weeks

 TemperatureHumidityPressure
High101 °F (Feb 10, 3:30 PM)86% (Jan 29, 11:30 PM)30.10 "Hg (Jan 29, 11:30 PM)
Low52 °F (Feb 1, 6:30 AM)10% (Feb 10, 3:30 PM)29.44 "Hg (Jan 30, 5:30 AM)
Average74 °F43%29.81 "Hg
* Reported Jan 28 5:30 PM — Feb 12 6:00 PM, Broken Hill, Weather by CustomWeather, © 2016

Note: Actual official high and low records may vary slightly from our data, if they occured in-between our weather recording intervals... More about our weather records

Advertising

Broken Hill Weather History for the Previous 24 Hours

 ConditionsComfort  
Time TempWeatherWind HumidityBarometerVisibility
6:00 PM
Fri, Feb 12
98 °FExtremely hot.6 mph10%29.77 "HgN/A
5:30 PM99 °FExtremely hot.7 mph10%29.78 "HgN/A
3:30 PM98 °FExtremely hot.8 mph10%29.80 "HgN/A
3:00 PM97 °FExtremely hot.6 mph12%29.81 "HgN/A
2:30 PM95 °FExtremely hot.5 mph12%29.83 "HgN/A
12:30 PM89 °FHot.6 mph21%29.88 "HgN/A
12:00 PM86 °FPleasantly warm.6 mph24%29.89 "HgN/A
9:30 AM73 °FMild.7 mph46%29.93 "HgN/A
6:30 AM60 °FCool.6 mph70%29.91 "HgN/A
6:00 AM61 °FCool.5 mph69%29.90 "HgN/A
5:30 AM62 °FCool.7 mph67%29.89 "HgN/A
3:30 AM65 °FMild.9 mph59%29.89 "HgN/A
3:00 AM67 °FMild.9 mph54%29.90 "HgN/A
2:30 AM68 °FMild.8 mph51%29.90 "HgN/A
12:30 AM76 °FMild.9 mph37%29.91 "HgN/A
12:00 AM78 °FPleasantly warm.12 mph34%29.90 "HgN/A
11:30 PM
Thu, Feb 11
80 °FPleasantly warm.13 mph29%29.89 "HgN/A
9:30 PM87 °FPleasantly warm.10 mph17%29.85 "HgN/A
9:00 PM87 °FPleasantly warm.8 mph16%29.84 "HgN/A
8:30 PM89 °FHot.9 mph15%29.83 "HgN/A
Weather by CustomWeather, © 2016

See weather overviewHow to use our weather pages